www.pogodaiklimat.ru

Погода и климат >> Архив погоды >> Россия >> Забайкальский край >> Агинское


ПОГОДА в Агинском

  • Прогноз погоды в Агинском
  • Монитор погоды в Агинском
  • Климат города

АРХИВ ПОГОДЫ в Агинском

Время (UTC), дата Ветер
(напр.,м/с)
 
Видим.   Явления Облачность Т
(С)
Тd
(С)
f
(%)
Тe
(С)
Тes
(С)
Комфортность P
(гПа)
Po
(гПа)
Тmin
(С)
Tmax
(С)
R
(мм)
R24
(мм)
S
(см)
00 17.05 З 1 50 км 1/0
[Ci fib]
+11.4 -0.8 43 +12 +18 1008.9 930.5 +1.2
03 17.05 ЮВ 1 50 км 1/1 1000 м
[Cu hum]
+20.9 -4.8 17 +21 +37 комфорт 1005.4 929.7
06 17.05 З 3
{12}
50 км 5/3 1000 м
[Cu med, cong Ac cuf Ci fib]
+23.0 -6.5 13 +21 +28 комфорт 1003.2 928.2
09 17.05 СЗ 3 50 км 3/3 1000 м
[Cu med, cong]
+23.8 -8.3 11 +21 +24 комфорт 1002.1 927.3
12 17.05 СЗ 1 50 км 3/3 1000 м
[Sc diur, vesp]
+19.4 -7.3 16 +20 +20 1004.7 928.6 +24.3
15 17.05 З 3 50 км ясно +8.2 -3.7 43 +6 +6 1009.9 930.6
18 17.05 З 2 50 км ясно +3.0 -4.4 58 +1 +1 1012.6 931.6
21 17.05 ЮЗ 1 50 км ясно -0.2 -5.7 66 -2 -2 1014.3 932.3
00 18.05 З 1 50 км 3/0
[Ci fib]
+11.9 -3.8 33 +12 +19 1010.8 932.4 -0.6
03 18.05 Ю 5-10
{10}
50 км 8/0
[Ci fib]
+23.7 -5.6 14 +22 +28 комфорт 1005.5 930.5
06 18.05 Ю 8-13
{16}
50 км 3/1 1000 м
[Cu hum Ci fib]
+26.4 -7.8 10 +23 +26 комфорт 1001.8 927.7
09 18.05 Ю 8-11
{16}
50 км 10/0
[Ci fib]
+27.1 -8.7 9 +24 +24 комфорт 999.1 925.3
12 18.05 З 8-13
{25}
50 км пыльная буря на расстоянии {метель} 10/10 600 м
[Cb cap]
+23.3 -3.0 17 +22 +22 комфорт 1001.0 926.2 +27.2
15 18.05 СЗ 1
{13}
50 км 9/0
[Ac und]
+17.0 -1.6 28 +18 +18 1001.7 925.3
18 18.05 СЗ 1
{13}
50 км 3/0
[Ci fib]
+11.2 +0.4 47 +11 +11 1002.7 924.8
21 18.05 З 1 50 км 3/0
[Ac lent Ci fib]
+5.9 -0.4 64 +5 +5 1003.8 924.4
00 19.05 СЗ 1 50 км 10/0
[Ac lent Ci fib]
+15.3 +0.5 36 +16 +21 1000.9 924.2 +5.5
03 19.05 ЮЗ 4 50 км 10/0
[Ac lent Cs]
+24.9 -1.5 17 +23 +29 комфорт 998.4 924.2
06 19.05 СЗ 4
{11}
50 км 10/1 1000 м
[Cu med, cong Ac lent Cs]
+25.2 -3.8 14 +23 +27 комфорт 998.1 924.0
09 19.05 СЗ 5
{11}
50 км 10/1 1000 м
[Cu med, cong Ac lent Cs]
+24.7 -3.3 15 +23 +24 комфорт 998.7 924.4
12 19.05 С 3
{11}
50 км 10/0
[Ac As]
+22.1 -2.1 20 +21 +21 комфорт 1001.4 926.3 +26.6
15 19.05 СЗ 1 50 км 10/0
[Ac trans Ci fib]
+13.4 -0.3 39 +14 +14 1006.6 928.9
18 19.05 ЮЗ 2 50 км 3/3 1000 м
[Sc]
+12.9 -0.5 40 +13 +13 1007.8 930.0
21 19.05 В 1 50 км 1/1 1000 м
[Sc]
+5.6 -1.2 62 +5 +5 1011.0 930.9
00 20.05 СВ 6 50 км 3/3 1000 м
[Sc]
+16.0 -1.1 31 +15 +17 1008.5 931.4 +4.7
03 20.05 В 4
{10}
50 км 3/0
[Ac trans]
+21.8 +1.9 27 +22 +30 комфорт 1006.8 931.2
06 20.05 ЮВ 3
{10}
50 км 4/4 1000 м
[Cu med, cong]
+25.4 +3.8 25 +25 +32 комфорт 1003.6 929.2
09 20.05 Ю 7-11
{11}
50 км 6/3 1000 м
[Cu med, cong Ci fib]
+26.4 +3.9 23 +25 +26 комфорт 1001.5 927.5
12 20.05 ЮВ 5
{12}
50 км 10/1 1000 м
[Cu med, cong Ac trans Ci fib]
+21.8 +3.6 30 +22 +22 комфорт 1002.7 927.5 +26.8
15 20.05 ЮВ 10-14
{17}
50 км 10/3 600 м
[Cb cap Ci fib]
+18.0 +5.1 43 +17 +17 1003.9 927.7
18 20.05 ЮВ 3
{17}
50 км ясно +15.6 +6.5 55 +15 +15 1003.2 926.5
21 20.05 ЮВ 2 50 км 10/4 1000 м
[Sc Ci fib]
+15.9 +8.5 61 +16 +16 999.0 922.7
00 21.05 СЗ 8-13
{16}
50 км 10/4 1000 м
[Sc Ac trans Ci fib]
+11.1 +2.4 55 +8 +8 1003.2 925.2 +11.1
03 21.05 З 8-13
{13}
50 км 10/0
[Ac As]
+8.9 -0.5 52 +5 +6 1006.9 928.0 +8.3
06 21.05 СЗ 7-12
{14}
20 км слабый дождь 10/0
[As op]
+8.8 -1.7 48 +5 +6 1007.3 928.4
09 21.05 З 7-11
{15}
20 км слабый дождь 10/0
[As op]
+4.0 -0.2 74 -2 -1 1008.6 928.3
12 21.05 З 5
{15}
20 км слабый дождь 10/0
[As op]
+4.2 -2.2 63 -0 -0 1009.3 929.0 +11.1 0.0
15 21.05 З 4
{11}
50 км {дождь} 5/0
[Ac lent]
+3.9 -10.3 35 0 0 1007.8 927.4
18 21.05 З 6
{12}
50 км {дождь} ясно +0.9 -9.2 47 -5 -5 1008.6 927.3
21 21.05 З 4 50 км 3/0
[Ac lent]
-0.6 -7.6 59 -6 -6 1007.9 926.3
00 22.05 З 8-14
{14}
50 км 1/1 1000 м
[Cu hum]
+3.6 -8.9 40 -2 -1 1004.5 924.3 -2.3 0.0
03 22.05 З 10-16
{16}
50 км 10/6 1000 м
[Cu med, cong Ci fib]
+5.3 -9.3 34 -0 0 1000.2 920.8
06 22.05 З 10-14
{16}
50 км 10/5 1000 м
[Cu med, cong Cs]
+6.4 -6.5 39 +1 +2 997.2 918.4
09 22.05 З 9-14
{16}
50 км в посл. час ливневой дождь 10/5 600 м
[Cb cap Ci fib]
+5.9 +0.1 66 0 +1 995.5 916.7
12 22.05 З 7-12
{16}
50 км {ливн. осадки} 10/3 600 м
[Cb cap Ci ing]
+4.3 +0.9 79 -1 -1 995.5 916.3 +7.4 0.4
15 22.05 З 4
{12}
50 км {ливн. осадки} 6/0
[Ci fib]
+4.9 -1.0 66 +1 +1 994.2 915.3
18 22.05 В 1 50 км {ливн. осадки} 3/0
[Ci fib]
+1.4 -3.0 72 -0 -0 993.8 913.9
21 22.05 ЮЗ 3 50 км 10/0
[Ac lent Ci fib]
+2.2 -4.8 60 -2 -1 992.9 913.3
00 23.05 З 6-10
{11}
50 км 10/1 1000 м
[Cu hum Ci fib]
+8.5 -0.3 54 +5 +7 990.6 912.9 +0.2 0.0
03 23.05 З 7-11
{13}
50 км 9/8 600 м
[Cb cap Ac und]
+10.9 -0.6 45 +8 +9 989.6 912.6
06 23.05 СЗ 3
{14}
50 км {ливн. осадки} 10/4 600 м
[Cb cap Ac lent Ci fib]
+12.6 +1.1 45 +12 +15 989.6 913.1
09 23.05 З 9-15
{18}
50 км {ливн. осадки} 10/3 600 м
[Cb cap Ci fib]
+12.8 +2.6 50 +10 +10 991.3 914.7
12 23.05 З 5
{18}
50 км {ливн. осадки} 10/3 1000 м
[Sc Ac As]
+9.8 +4.0 67 +7 +7 994.3 916.7 +14.7 0.0
15 23.05 З 2 20 км слабый ливневой дождь 10/10 600 м
[Cb cap]
+7.8 +6.1 89 +6 +6 995.6 917.5
18 23.05 штиль 0 50 км {ливн. осадки} 3/1 1000 м
[Sc Ci fib]
+6.2 +5.1 93 +5 +5 997.8 919.0
21 23.05 СЗ 1 500 м туман 3/1 1000 м
[Sc Ci fib]
+2.1 +1.7 97 0 0 1001.2 921.0

 

Местоположение метеостанции Агинское (Забайкальский край, Россия): широта 51.10 долгота 114.50 высота над уровнем моря 681 м.

В архиве по умолчанию представлена погода в Агинском за последнюю неделю. Архивные данные за месяц целиком и за предыдущие месяцы, начиная с января 2011 года, Вы можете получить, выбрав интересующий диапазон дат из раскрывающегося списка и нажав кнопку "Ввод!".


*Определитесь, кто Вы:
робот инопланетянин человек

Внимание! Время в таблицах - всемирное. Для получения местного времени необходимо прибавить поправку, которая в Агинском равна 9 ч.

Смотрите также архив погоды в соседних городах и на ближайших метеорологических станциях:

Погода в Могойтуе (Забайкальский край, Россия) (38 км)
Погода в Курорт-Дарасуне (Забайкальский край, Россия) (57 км)
Погода в Карымской (Забайкальский край, Россия) (61 км)
Погода в Оловянной (Забайкальский край, Россия) (72 км)
Погода в Нижнем Цасучее (Забайкальский край, Россия) (78 км)
Погода в Дульдурге (Забайкальский край, Россия) (84 км)
Погода в Бырке (Забайкальский край, Россия) (111 км)
Погода в Акше (Забайкальский край, Россия) (130 км)
Погода в Чите (Забайкальский край, Россия) (133 км)
Погода в Шилке (Забайкальский край, Россия) (135 км)

Пояснения к столбцам:

Ветер - указаны скорость ветра в м/с - средняя за 10 мин, порывы в срок и между сроками (в фигурных скобках) и направление, откуда дует ветер: С - северный, СВ - северо-восточный, В - восточный, ЮВ - юго-восточный, Ю - южный, ЮЗ - юго-западный, З - западный, СЗ - северо-западный.
Видимость - горизонтальная дальность видимости в метрах или километрах. При видимости от 1 до 10 км при отсутствии осадков обычно наблюдается дымка, при ухудшении видимости до 1 км и менее - туман. В сухую погоду видимость может ухудшаться дымом, пылью или мглою.
Явления - указаны атмосферные явления, наблюдавшиеся в срок или в последний час перед сроком; фигурными скобками обозначены явления, наблюдавшиеся между сроками (за 1-3 часа до срока); квадратными скобками обозначены град или гололедные отложения с указанием их диаметра в мм.
Облачность - указаны через наклонную черту общая и нижняя облачность в баллах и высота нижней границы облаков в метрах; квадратными скобками обозначены формы облаков: Ci - перистые, Cs - перисто-слоистые, Cc - перисто-кучевые, Ac - высококучевые, As - высокослоистые, Sc - слоисто-кучевые, Ns - слоисто-дождевые, Cu - кучевые, Cb - кучево-дождевые. Подробнее классификацию облаков см. в Атласе облаков (PDF).
T - Температура воздуха - температура, измеренная на высоте 2 м над землей.
Td - Температура точки росы - температура, при понижении до которой содержащийся в воздухе водяной пар достигнет насыщения.
f - Относительная влажность воздуха - влажноcть воздуха, измеренная на высоте 2 м над землей.
Te - Эффективная температура - температура, которую ощущает одетый по сезону человек в тени. Характеристика душности погоды. При расчете учитывается влияние влажности воздуха и скорости ветра на теплоощущения человека.
Tes - Эффективная температура на солнце - температура, которую ощущает человек, с поправкой на солнечный нагрев. Характеристика знойности погоды. Зависит от высоты солнца над горизонтом, облачности и скорости ветра. Ночью, в пасмурную погоду, а также при ветре 12 м/с и более поправка равна нулю.
P - Атмосферное давление - приведенное к уровню моря атмосферное давление.
Po - Атмосферное давление - измеренное на уровне метеостанции атмосферное давление.
Tmin - Минимальная температура - минимум температуры воздуха на высоте 2 м над землей.
Tmax - Максимальная температура - максимум температуры воздуха на высоте 2 м над землей.
R - Количество осадков - Количество выпавших осадков за период времени, мм. При наведении курсора мыши на число - период времени, за который выпало указанное количество осадков.
R24 - Количество осадков - Количество выпавших осадков за 24 часа, мм.
S - Снежный покров - Высота снежного покрова, см. При наведении курсора мыши на число - состояние снежного покрова и степень покрытия местности в баллах.